User: anonymous   Login
Location: Brunembert
(50.7122°N, 1.8935°E)
Time: 16:09:40
(UTC+00:00)
Language:

IRIDIUM 104 - Orbit

View from above orbital plane
View from above orbital plane
View from above satellite
View from above satellite

Ground track
Ground track

The orbit data is extracted from the following two-line orbital elements,

1 41922U 17003F   21169.13497914  .00000097  00000-0  27632-4 0  9996
2 41922  86.3970 131.1318 0002290  93.8275 266.3183 14.34216588231689
Epoch (UTC): 18 June 2021 03:14:22
Eccentricity: 0.0002290
inclination: 86.3970°
perigee height: 776 km
apogee height: 779 km
right ascension of ascending node: 131.1318°
argument of perigee: 93.8275°
revolutions per day: 14.34216588
mean anomaly at epoch: 266.3183°
orbit number at epoch: 23168

The dashed part of the orbit path shows where the satellite is in the earth's shadow,  

DLR